This is the latest recevied weather packets stored in our database for station/object N5JXS. If no packets are shown the sender has not sent any weather packets the latest 10 day(s).
| Time | Temp. | Humidity | Pressure | Rain* | Wind** | Luminosity | Snow |
|---|---|---|---|---|---|---|---|
| 1777845612 | 17.22° C | 21% | 1017.9 hPa | 0 mm | - | 106 W/m² | - |
| 1777845309 | 17.22° C | 20% | 1017.6 hPa | 0 mm | - | 115 W/m² | - |
| 1777845006 | 17.22° C | 20% | 1017.7 hPa | 0 mm | - | 112 W/m² | - |
| 1777844704 | 17.78° C | 19% | 1017.7 hPa | 0 mm | - | 98 W/m² | - |
| 1777844401 | 17.78° C | 19% | 1017.9 hPa | 0 mm | - | 112 W/m² | - |
| 1777844099 | 18.33° C | 19% | 1017.7 hPa | 0 mm | - | 143 W/m² | - |
| 1777843795 | 18.33° C | 19% | 1017.7 hPa | 0 mm | - | 173 W/m² | - |
| 1777843493 | 18.89° C | 19% | 1017.9 hPa | 0 mm | - | 246 W/m² | - |
| 1777843190 | 20° C | 17% | 1018.5 hPa | 0 mm | - | 245 W/m² | - |
| 1777842887 | 18.89° C | 18% | 1018.2 hPa | 0 mm | - | 526 W/m² | - |
| 1777842582 | 18.89° C | 17% | 1018.2 hPa | 0 mm | - | 242 W/m² | - |
| 1777842279 | 18.89° C | 17% | 1018.4 hPa | 0 mm | - | 246 W/m² | - |
| 1777841974 | 19.44° C | 17% | 1018.6 hPa | 0 mm | - | 254 W/m² | - |
| 1777841672 | 19.44° C | 17% | 1018.6 hPa | 0 mm | - | 332 W/m² | - |
| 1777841367 | 20° C | 17% | 1018.6 hPa | 0 mm | - | 334 W/m² | - |
| 1777841065 | 20° C | 16% | 1018.7 hPa | 0 mm | - | 456 W/m² | - |
| 1777840762 | 19.44° C | 17% | 1018.6 hPa | 0 mm | - | 433 W/m² | - |
| 1777840459 | 18.89° C | 16% | 1019 hPa | 0 mm | - | 671 W/m² | - |
| 1777840156 | 19.44° C | 16% | 1018.9 hPa | 0 mm | - | 671 W/m² | - |
| 1777839854 | 18.33° C | 15% | 1019.2 hPa | 0 mm | - | 723 W/m² | - |
| 1777839553 | 18.89° C | 15% | 1019.4 hPa | 0 mm | - | 242 W/m² | - |
| 1777839249 | 19.44° C | 15% | 1019.1 hPa | 0 mm | - | 760 W/m² | - |
| 1777838947 | 18.89° C | 15% | 1019.6 hPa | 0 mm | - | 673 W/m² | - |
| 1777838643 | 18.89° C | 17% | 1019.6 hPa | 0 mm | - | 280 W/m² | - |
| 1777838340 | 18.89° C | 16% | 1019.2 hPa | 0 mm | - | 665 W/m² | - |
* Rain latest hour (hover to see other rain measurements)
** Current wind speed in m/s (hover to see current wind gust speed)